Vicksburg, LA

11:22 PM CDT on April 19, 2018 (GMT -0500)
Vicksburg Tallulah Regional

Weather History for KTVR - October, 2013

Change the Weather History Date:

Sunday, October 27, 2013

  Actual Average Record
Temperature  
Mean Temperature 56 °F 62 °F  
Max Temperature 68 °F 75 °F 86 °F (2004)
Min Temperature 43 °F 49 °F 27 °F (1957)
Degree Days  
Heating Degree Days 9 5  
Month to date heating degree days 100 73  
Since 1 July heating degree days 100 78  
Cooling Degree Days 0 2  
Month to date cooling degree days 121 104  
Year to date cooling degree days 2233 2201  
Growing Degree Days 6 (Base 50)    
Moisture  
Dew Point 56 °F    
Average Humidity 87    
Maximum Humidity 100    
Minimum Humidity 73    
Precipitation  
Precipitation 0.01 in 0.14 in 1.97 in (1972)
Month to date precipitation 1.52 4.17  
Year to date precipitation 55.32 43.63  
Sea Level Pressure  
Sea Level Pressure 30.11 in    
Wind  
Wind Speed 2 mph (SSE)    
Max Wind Speed 8 mph    
Max Gust Speed 9 mph    
Visibility 9 miles    
Events Rain    
T = Trace of Precipitation, MM = Missing Value Source: NWS Daily Summary

Daily Weather History Graph

Daily Weather History Graph

Search for Another Location

Airport or City:

Astronomy

Oct. 27, 2013 Rise Set
Actual Time 7:17 AM CDT 6:18 PM CDT
Civil Twilight 6:52 AM CDT 6:43 PM CDT
Nautical Twilight 6:23 AM CDT 7:12 PM CDT
Astronomical Twilight 5:54 AM CDT 7:40 PM CDT
Moon 12:37 AM CDT (10/27) 2:06 PM CDT (10/27)
Length of Visible Light 11h 51m
Length of Day
11h 00m
Last Quarter, 43% of the Moon is Illuminated
Oct 27
Last Quarter
Nov 3
New
Nov 9
First Quarter
Nov 17
Full
Nov 25
Last Quarter

Hourly Weather History & Observations

Time (CDT) Temp. Dew Point Humidity Pressure Visibility Wind Dir Wind Speed Gust Speed Precip Events Conditions
12:53 AM 45.0 °F 44.1 °F 97% 30.15 in 7.0 mi Calm Calm - N/A   Clear
1:53 AM 44.1 °F 43.0 °F 96% 30.14 in 10.0 mi Calm Calm - N/A   Clear
2:53 AM 45.0 °F 44.1 °F 97% 30.13 in 7.0 mi Calm Calm - N/A   Clear
3:53 AM 43.0 °F 42.1 °F 97% 30.13 in 10.0 mi Calm Calm - N/A   Clear
4:53 AM 46.0 °F 45.0 °F 96% 30.12 in 6.0 mi Calm Calm - N/A   Clear
5:53 AM 48.0 °F 46.9 °F 96% 30.12 in 10.0 mi SE 3.5 mph - N/A   Clear
6:53 AM 55.0 °F 51.1 °F 86% 30.11 in 10.0 mi Calm Calm - N/A   Scattered Clouds
7:53 AM 55.9 °F 53.1 °F 90% 30.12 in 10.0 mi SSE 4.6 mph - N/A   Overcast
8:53 AM 57.9 °F 54.0 °F 87% 30.14 in 10.0 mi Calm Calm - N/A   Clear
9:53 AM 59.0 °F 54.0 °F 83% 30.16 in 10.0 mi Calm Calm - N/A   Overcast
10:53 AM 60.1 °F 55.0 °F 83% 30.17 in 10.0 mi Calm Calm - N/A   Overcast
11:53 AM 62.1 °F 55.9 °F 80% 30.16 in 10.0 mi South 3.5 mph - N/A   Overcast
12:53 PM 64.9 °F 57.0 °F 75% 30.14 in 10.0 mi South 5.8 mph - N/A   Overcast
1:25 PM 64.4 °F 57.2 °F 77% 30.10 in 10.0 mi South 4.6 mph - N/A   Overcast
1:53 PM 66.9 °F 59.0 °F 76% 30.10 in 10.0 mi SSW 5.8 mph - N/A   Overcast
2:27 PM 68.0 °F 59.0 °F 73% 30.07 in 10.0 mi Calm Calm - N/A   Overcast
2:53 PM 68.0 °F 59.0 °F 73% 30.09 in 10.0 mi Variable 3.5 mph - N/A   Overcast
3:53 PM 68.0 °F 59.0 °F 73% 30.09 in 10.0 mi Calm Calm - N/A   Overcast
4:53 PM 66.0 °F 60.1 °F 81% 30.08 in 10.0 mi SE 5.8 mph - 0.00 in   Overcast
5:11 PM 66.2 °F 60.8 °F 83% 30.06 in 10.0 mi SSE 5.8 mph - N/A   Overcast
5:53 PM 66.0 °F 60.1 °F 81% 30.07 in 10.0 mi Calm Calm - N/A   Overcast
6:53 PM 64.0 °F 61.0 °F 90% 30.08 in 8.0 mi Calm Calm - 0.01 in Rain Light Rain
7:49 PM 62.6 °F 60.8 °F 94% 30.07 in 10.0 mi Calm Calm - 0.00 in   Overcast
7:53 PM 63.0 °F 61.0 °F 93% 30.09 in 10.0 mi Calm Calm - 0.00 in   Overcast
8:01 PM 62.6 °F 62.6 °F 100% 30.08 in 10.0 mi Calm Calm - N/A   Overcast
8:13 PM 64.4 °F 62.6 °F 94% 30.08 in 10.0 mi Calm Calm - N/A   Overcast
8:53 PM 63.0 °F 62.1 °F 97% 30.11 in 10.0 mi Calm Calm - 0.00 in   Overcast
9:11 PM 62.6 °F 60.8 °F 94% 30.09 in 10.0 mi SE 3.5 mph - N/A   Overcast
9:53 PM 61.0 °F 60.1 °F 97% 30.11 in 6.0 mi Calm Calm - N/A   Scattered Clouds
10:30 PM 60.8 °F 60.8 °F 100% 30.10 in 5.0 mi SE 3.5 mph - N/A   Mostly Cloudy
10:53 PM 62.1 °F 61.0 °F 96% 30.12 in 6.0 mi Calm Calm - N/A   Overcast
11:53 PM 63.0 °F 61.0 °F 93% 30.12 in 4.0 mi Calm Calm - N/A   Overcast